Cuivre River (Missouri), Troy (05514500)

StateMissouriLatestGood (526 cfs)
RiverCuivre RiverRatingObservedEstimated
Updated2026-05-02 10:00 (31 minutes ago)Flood - The river is flooding. Obstacles can be treacherous or deadly. The river should be avoided at this stage for casual trips and definitely for the inexperienced. Trips should be attempted only with protective gear and equipment.Flood(none)2680
Discharge526 cfs (median: 290 cfs)High - The river is high and potentially dangerous, especially for the young and / or inexperienced. Normal stream obstacles are sometimes difficult to navigate. Extended distances can be attempted, but canoe travel may not be advisable.High(none)718
Height7.14 feetGood - Conditions are ideal for a canoe or kayak. Boats typically will drag on fewer than one-quarter of riffles, if at all, and portages are unnecessary or rare. Normal float lengths can be attempted without a problem.Good(none)216
TrendSteady (falling over 24 hours)Low - River is low but can still be floated. Some riffles are okay but most come with significant dragging and might need a portage. Float lengths should be reduced to accommodate low flow, dragging, and portages.Low(none)132
USGSExternal icon USGS Site (External icon Duck Duck Go Maps)Poor - River is too low to float comfortably. Most or all riffles will drag or must be portaged and some obstacles (such as slick shelf rock) cause undue problems. Avoid the river at this stage for casual paddling trips.Poor(none)34

Trending Data

Plot Image

Trips for Cuivre River (Missouri), Troy (05514500)

DateStartEndDistanceConditionDischargeHeightFishingDetails

A total of 0 rows are displayed.

Condition Descriptions

Fishing Conditions

Fish Species

Notes

Classic Trip List

The classic River Trips application is still available for use. It is updated with the new system using a data retrofit. It is no longer maintained. The original River Trips application is no longer updated (as of 1 Dec 2016) but can be checked for errors or for the condition of the data before it was converted to the new system.

Gauge Data Table

ObservationHeightDischargeMaximum
Discharge
Minimum
Discharge
Mean
Discharge
P05P10P20P25P50
(Median)
P75P80P90P95
2026-05-02 10:00 7.14 526 41300 (1983) 17 (2000) 1660 44 66 112 125 290 905 1130 4380 10100
2026-05-02 09:30 7.14 526 41300 (1983) 17 (2000) 1660 44 66 112 125 290 905 1130 4380 10100
2026-05-02 09:00 7.15 531 41300 (1983) 17 (2000) 1660 44 66 112 125 290 905 1130 4380 10100
2026-05-02 08:30 7.16 535 41300 (1983) 17 (2000) 1660 44 66 112 125 290 905 1130 4380 10100
2026-05-02 08:00 7.17 540 41300 (1983) 17 (2000) 1660 44 66 112 125 290 905 1130 4380 10100
2026-05-02 07:30 7.17 540 41300 (1983) 17 (2000) 1660 44 66 112 125 290 905 1130 4380 10100
2026-05-02 07:00 7.18 544 41300 (1983) 17 (2000) 1660 44 66 112 125 290 905 1130 4380 10100
2026-05-02 06:30 7.19 549 41300 (1983) 17 (2000) 1660 44 66 112 125 290 905 1130 4380 10100
2026-05-02 06:00 7.20 554 41300 (1983) 17 (2000) 1660 44 66 112 125 290 905 1130 4380 10100
2026-05-02 05:30 7.20 554 41300 (1983) 17 (2000) 1660 44 66 112 125 290 905 1130 4380 10100
2026-05-02 05:00 7.21 559 41300 (1983) 17 (2000) 1660 44 66 112 125 290 905 1130 4380 10100
2026-05-02 04:30 7.22 563 41300 (1983) 17 (2000) 1660 44 66 112 125 290 905 1130 4380 10100
2026-05-02 04:00 7.23 568 41300 (1983) 17 (2000) 1660 44 66 112 125 290 905 1130 4380 10100
2026-05-02 03:30 7.23 568 41300 (1983) 17 (2000) 1660 44 66 112 125 290 905 1130 4380 10100
2026-05-02 03:00 7.24 573 41300 (1983) 17 (2000) 1660 44 66 112 125 290 905 1130 4380 10100
2026-05-02 02:30 7.24 573 41300 (1983) 17 (2000) 1660 44 66 112 125 290 905 1130 4380 10100
2026-05-02 02:00 7.25 578 41300 (1983) 17 (2000) 1660 44 66 112 125 290 905 1130 4380 10100
2026-05-02 01:30 7.26 583 41300 (1983) 17 (2000) 1660 44 66 112 125 290 905 1130 4380 10100
2026-05-02 01:00 7.27 588 41300 (1983) 17 (2000) 1660 44 66 112 125 290 905 1130 4380 10100
2026-05-02 00:30 7.28 592 41300 (1983) 17 (2000) 1660 44 66 112 125 290 905 1130 4380 10100
2026-05-02 00:00 7.28 592 41300 (1983) 17 (2000) 1660 44 66 112 125 290 905 1130 4380 10100
2026-05-01 23:30 7.29 597 41300 (1983) 17 (2000) 1660 44 66 112 125 290 905 1130 4380 10100
2026-05-01 23:00 7.30 602 41300 (1983) 17 (2000) 1660 44 66 112 125 290 905 1130 4380 10100
2026-05-01 22:30 7.30 602 30300 (2019) 19 (2000) 1800 49 64 113 129 265 1060 1650 2660 9740
2026-05-01 22:00 7.31 607 30300 (2019) 19 (2000) 1800 49 64 113 129 265 1060 1650 2660 9740
2026-05-01 21:30 7.32 612 30300 (2019) 19 (2000) 1800 49 64 113 129 265 1060 1650 2660 9740
2026-05-01 21:00 7.33 617 30300 (2019) 19 (2000) 1800 49 64 113 129 265 1060 1650 2660 9740
2026-05-01 20:30 7.33 617 30300 (2019) 19 (2000) 1800 49 64 113 129 265 1060 1650 2660 9740
2026-05-01 20:00 7.34 622 30300 (2019) 19 (2000) 1800 49 64 113 129 265 1060 1650 2660 9740
2026-05-01 19:30 7.35 627 30300 (2019) 19 (2000) 1800 49 64 113 129 265 1060 1650 2660 9740
2026-05-01 19:00 7.36 633 30300 (2019) 19 (2000) 1800 49 64 113 129 265 1060 1650 2660 9740
2026-05-01 18:30 7.36 633 30300 (2019) 19 (2000) 1800 49 64 113 129 265 1060 1650 2660 9740
2026-05-01 18:00 7.38 643 30300 (2019) 19 (2000) 1800 49 64 113 129 265 1060 1650 2660 9740
2026-05-01 17:30 7.39 648 30300 (2019) 19 (2000) 1800 49 64 113 129 265 1060 1650 2660 9740
2026-05-01 17:00 7.39 648 30300 (2019) 19 (2000) 1800 49 64 113 129 265 1060 1650 2660 9740
2026-05-01 16:30 7.39 648 30300 (2019) 19 (2000) 1800 49 64 113 129 265 1060 1650 2660 9740
2026-05-01 16:00 7.41 658 30300 (2019) 19 (2000) 1800 49 64 113 129 265 1060 1650 2660 9740
2026-05-01 15:30 7.42 664 30300 (2019) 19 (2000) 1800 49 64 113 129 265 1060 1650 2660 9740
2026-05-01 15:00 7.44 674 30300 (2019) 19 (2000) 1800 49 64 113 129 265 1060 1650 2660 9740
2026-05-01 14:30 7.41 658 30300 (2019) 19 (2000) 1800 49 64 113 129 265 1060 1650 2660 9740
2026-05-01 14:00 7.45 680 30300 (2019) 19 (2000) 1800 49 64 113 129 265 1060 1650 2660 9740
2026-05-01 13:30 7.47 690 30300 (2019) 19 (2000) 1800 49 64 113 129 265 1060 1650 2660 9740
2026-05-01 13:00 7.47 690 30300 (2019) 19 (2000) 1800 49 64 113 129 265 1060 1650 2660 9740
2026-05-01 12:30 7.48 696 30300 (2019) 19 (2000) 1800 49 64 113 129 265 1060 1650 2660 9740
2026-05-01 12:00 7.50 706 30300 (2019) 19 (2000) 1800 49 64 113 129 265 1060 1650 2660 9740
2026-05-01 11:30 7.50 706 30300 (2019) 19 (2000) 1800 49 64 113 129 265 1060 1650 2660 9740
2026-05-01 11:00 7.52 717 30300 (2019) 19 (2000) 1800 49 64 113 129 265 1060 1650 2660 9740
2026-05-01 10:30 7.52 717 30300 (2019) 19 (2000) 1800 49 64 113 129 265 1060 1650 2660 9740
2026-05-01 10:00 7.54 729 30300 (2019) 19 (2000) 1800 49 64 113 129 265 1060 1650 2660 9740
2026-05-01 09:30 7.54 729 30300 (2019) 19 (2000) 1800 49 64 113 129 265 1060 1650 2660 9740
2026-05-01 09:00 7.56 740 30300 (2019) 19 (2000) 1800 49 64 113 129 265 1060 1650 2660 9740
2026-05-01 08:30 7.57 745 30300 (2019) 19 (2000) 1800 49 64 113 129 265 1060 1650 2660 9740
2026-05-01 08:00 7.58 751 30300 (2019) 19 (2000) 1800 49 64 113 129 265 1060 1650 2660 9740
2026-05-01 07:30 7.59 757 30300 (2019) 19 (2000) 1800 49 64 113 129 265 1060 1650 2660 9740
2026-05-01 07:00 7.60 762 30300 (2019) 19 (2000) 1800 49 64 113 129 265 1060 1650 2660 9740
2026-05-01 06:30 7.62 774 30300 (2019) 19 (2000) 1800 49 64 113 129 265 1060 1650 2660 9740
2026-05-01 06:00 7.63 780 30300 (2019) 19 (2000) 1800 49 64 113 129 265 1060 1650 2660 9740
2026-05-01 05:30 7.64 785 30300 (2019) 19 (2000) 1800 49 64 113 129 265 1060 1650 2660 9740
2026-05-01 05:00 7.65 791 30300 (2019) 19 (2000) 1800 49 64 113 129 265 1060 1650 2660 9740
2026-05-01 04:30 7.66 797 30300 (2019) 19 (2000) 1800 49 64 113 129 265 1060 1650 2660 9740
2026-05-01 04:00 7.68 809 30300 (2019) 19 (2000) 1800 49 64 113 129 265 1060 1650 2660 9740
2026-05-01 03:30 7.69 815 30300 (2019) 19 (2000) 1800 49 64 113 129 265 1060 1650 2660 9740
2026-05-01 03:00 7.70 821 30300 (2019) 19 (2000) 1800 49 64 113 129 265 1060 1650 2660 9740
2026-05-01 02:30 7.71 827 30300 (2019) 19 (2000) 1800 49 64 113 129 265 1060 1650 2660 9740
2026-05-01 02:00 7.72 833 30300 (2019) 19 (2000) 1800 49 64 113 129 265 1060 1650 2660 9740
2026-05-01 01:30 7.74 845 30300 (2019) 19 (2000) 1800 49 64 113 129 265 1060 1650 2660 9740
2026-05-01 01:00 7.74 845 30300 (2019) 19 (2000) 1800 49 64 113 129 265 1060 1650 2660 9740
2026-05-01 00:30 7.76 857 30300 (2019) 19 (2000) 1800 49 64 113 129 265 1060 1650 2660 9740
2026-05-01 00:00 7.77 863 30300 (2019) 19 (2000) 1800 49 64 113 129 265 1060 1650 2660 9740
2026-04-30 23:30 7.78 869 30300 (2019) 19 (2000) 1800 49 64 113 129 265 1060 1650 2660 9740
2026-04-30 23:00 7.80 882 30300 (2019) 19 (2000) 1800 49 64 113 129 265 1060 1650 2660 9740

A total of 71 rows are displayed for years 1922 through 2025.